| time (UTC) | temp C | wind direction | speed KPH | gust KPH | rain 1hr cm | rain 24hr cm | rain mn cm | humidity % | barometer mb |
| 20260504160122 | 18 | 73 | 3.2 | 9.7 | 0.00 | 0.00 | 0.00 | 55 | 1009.9 |
| 20260504151122 | 17 | 89 | 1.6 | 9.7 | 0.00 | 0.00 | 0.00 | 61 | 1009.8 |
| 20260504150122 | 17 | 92 | 0.0 | 3.2 | 0.00 | 0.00 | 0.00 | 68 | 1009.7 |
| 20260504141145 | 15 | 143 | 1.6 | 8.0 | 0.00 | 0.00 | 0.00 | 74 | 1009.5 |
| 20260504140124 | 14 | 0 | 0.0 | 0.0 | 0.00 | 0.00 | 0.00 | 76 | 1009.5 |
| 20260504130123 | 12 | 143 | 0.0 | 3.2 | 0.00 | 0.00 | 0.00 | 80 | 1009.1 |
| 20260504120123 | 13 | 143 | 0.0 | 3.2 | 0.00 | 0.00 | 0.00 | 79 | 1009.1 |
| 20260504110124 | 13 | 143 | 0.0 | 4.8 | 0.00 | 0.00 | 0.00 | 75 | 1009.1 |
| 20260504100122 | 14 | 0 | 0.0 | 0.0 | 0.00 | 0.00 | 0.00 | 77 | 1008.9 |
| 20260504090125 | 15 | 0 | 0.0 | 0.0 | 0.00 | 0.00 | 0.00 | 75 | 1008.9 |
| 20260504081144 | 15 | 0 | 0.0 | 0.0 | 0.00 | 0.00 | 0.00 | 74 | 1008.8 |
| 20260504080124 | 15 | 0 | 0.0 | 0.0 | 0.00 | 0.00 | 0.00 | 74 | 1008.7 |
| 20260504070144 | 17 | 123 | 0.0 | 3.2 | 0.00 | 0.00 | 0.00 | 65 | 1008.5 |
| 20260504060144 | 17 | 0 | 0.0 | 0.0 | 0.00 | 0.00 | 0.00 | 62 | 1008.4 |
| 20260504050123 | 20 | 0 | 0.0 | 0.0 | 0.00 | 0.00 | 0.00 | 53 | 1008.4 |
| 20260504045123 | 20 | 0 | 0.0 | 0.0 | 0.00 | 0.00 | 0.00 | 51 | 1008.4 |
| 20260504044122 | 20 | 0 | 0.0 | 0.0 | 0.00 | 0.00 | 0.00 | 50 | 1008.4 |
| 20260504043143 | 21 | 131 | 0.0 | 3.2 | 0.00 | 0.00 | 0.00 | 50 | 1008.3 |
| 20260504042123 | 21 | 128 | 0.0 | 4.8 | 0.00 | 0.00 | 0.00 | 48 | 1008.3 |
| 20260504041123 | 21 | 0 | 0.0 | 0.0 | 0.00 | 0.00 | 0.00 | 46 | 1008.3 |
| 20260504040122 | 22 | 0 | 0.0 | 3.2 | 0.00 | 0.00 | 0.00 | 45 | 1008.2 |
| 20260504035123 | 22 | 238 | 0.0 | 8.0 | 0.00 | 0.00 | 0.00 | 44 | 1008.1 |
| 20260504034144 | 22 | 256 | 0.0 | 4.8 | 0.00 | 0.00 | 0.00 | 43 | 1008.1 |
| 20260504033123 | 23 | 277 | 1.6 | 8.0 | 0.00 | 0.00 | 0.00 | 42 | 1008.1 |
| 20260504032122 | 23 | 261 | 1.6 | 8.0 | 0.00 | 0.00 | 0.00 | 41 | 1008.0 |
| 20260504031123 | 23 | 255 | 3.2 | 16.1 | 0.00 | 0.00 | 0.00 | 40 | 1008.1 |
| 20260504030122 | 24 | 263 | 3.2 | 9.7 | 0.00 | 0.00 | 0.00 | 39 | 1008.1 |
| 20260504025122 | 25 | 270 | 3.2 | 9.7 | 0.00 | 0.00 | 0.00 | 39 | 1008.2 |
| 20260504024124 | 25 | 260 | 3.2 | 12.9 | 0.00 | 0.00 | 0.00 | 38 | 1008.2 |
| 20260504023124 | 26 | 277 | 3.2 | 16.1 | 0.00 | 0.00 | 0.00 | 37 | 1008.2 |
| 20260504022122 | 27 | 283 | 3.2 | 9.7 | 0.00 | 0.00 | 0.00 | 36 | 1008.3 |
| 20260504021123 | 27 | 309 | 3.2 | 16.1 | 0.00 | 0.00 | 0.00 | 31 | 1008.4 |
| 20260504020145 | 27 | 313 | 3.2 | 12.9 | 0.00 | 0.00 | 0.00 | 32 | 1008.4 |
| 20260504015124 | 27 | 310 | 1.6 | 9.7 | 0.00 | 0.00 | 0.00 | 33 | 1008.5 |
| 20260504014122 | 27 | 279 | 3.2 | 16.1 | 0.00 | 0.00 | 0.00 | 34 | 1008.7 |
| 20260504013143 | 27 | 284 | 4.8 | 20.9 | 0.00 | 0.00 | 0.00 | 33 | 1008.7 |
| 20260504012145 | 28 | 326 | 3.2 | 17.7 | 0.00 | 0.00 | 0.00 | 32 | 1008.9 |
| 20260504011123 | 28 | 301 | 4.8 | 17.7 | 0.00 | 0.00 | 0.00 | 34 | 1009.0 |
| 20260504010122 | 28 | 295 | 4.8 | 17.7 | 0.00 | 0.00 | 0.00 | 31 | 1009.0 |
| 20260504005124 | 28 | 268 | 4.8 | 20.9 | 0.00 | 0.00 | 0.00 | 32 | 1009.1 |
| 20260504004143 | 28 | 297 | 4.8 | 17.7 | 0.00 | 0.00 | 0.00 | 35 | 1009.2 |
| 20260504003143 | 28 | 302 | 4.8 | 17.7 | 0.00 | 0.00 | 0.00 | 36 | 1009.3 |
| 20260504002122 | 28 | 300 | 3.2 | 16.1 | 0.00 | 0.00 | 0.00 | 35 | 1009.4 |
| 20260504001124 | 27 | 286 | 6.4 | 17.7 | 0.00 | 0.00 | 0.00 | 35 | 1009.4 |
| 20260504000122 | 27 | 263 | 6.4 | 20.9 | 0.00 | 0.00 | 0.00 | 35 | 1009.5 |
| 20260503235124 | 27 | 285 | 6.4 | 22.5 | 0.00 | 0.00 | 0.00 | 35 | 1009.6 |
| 20260503234124 | 27 | 270 | 6.4 | 22.5 | 0.00 | 0.00 | 0.00 | 35 | 1009.7 |
| 20260503233124 | 27 | 265 | 6.4 | 25.7 | 0.00 | 0.00 | 0.00 | 35 | 1009.9 |
| 20260503232122 | 27 | 279 | 6.4 | 22.5 | 0.00 | 0.00 | 0.00 | 35 | 1010.0 |
| 20260503231122 | 27 | 259 | 8.0 | 29.0 | 0.00 | 0.00 | 0.00 | 36 | 1010.2 |
| 20260503230145 | 27 | 277 | 8.0 | 22.5 | 0.00 | 0.00 | 0.00 | 36 | 1010.3 |
| 20260503225124 | 27 | 270 | 6.4 | 20.9 | 0.00 | 0.00 | 0.00 | 36 | 1010.3 |
| 20260503224122 | 27 | 272 | 6.4 | 22.5 | 0.00 | 0.00 | 0.00 | 37 | 1010.4 |
| 20260503223145 | 27 | 280 | 8.0 | 22.5 | 0.00 | 0.00 | 0.00 | 37 | 1010.5 |
| 20260503222124 | 26 | 272 | 6.4 | 20.9 | 0.00 | 0.00 | 0.00 | 38 | 1010.8 |
| 20260503221124 | 26 | 269 | 6.4 | 22.5 | 0.00 | 0.00 | 0.00 | 38 | 1010.8 |
| 20260503220143 | 26 | 275 | 8.0 | 22.5 | 0.00 | 0.00 | 0.00 | 38 | 1011.0 |
| 20260503215122 | 26 | 275 | 8.0 | 25.7 | 0.00 | 0.00 | 0.00 | 38 | 1011.2 |
| 20260503214122 | 26 | 274 | 6.4 | 25.7 | 0.00 | 0.00 | 0.00 | 40 | 1011.3 |
| 20260503213124 | 26 | 272 | 8.0 | 25.7 | 0.00 | 0.00 | 0.00 | 40 | 1011.3 |
| 20260503212124 | 26 | 270 | 6.4 | 29.0 | 0.00 | 0.00 | 0.00 | 41 | 1011.3 |
| 20260503211122 | 26 | 259 | 8.0 | 29.0 | 0.00 | 0.00 | 0.00 | 43 | 1011.4 |
| 20260503210124 | 26 | 269 | 4.8 | 20.9 | 0.00 | 0.00 | 0.00 | 44 | 1011.6 |
| 20260503205122 | 25 | 278 | 6.4 | 29.0 | 0.00 | 0.00 | 0.00 | 45 | 1011.8 |
| 20260503204123 | 25 | 275 | 4.8 | 20.9 | 0.00 | 0.00 | 0.00 | 45 | 1011.9 |
| 20260503203124 | 25 | 270 | 8.0 | 25.7 | 0.00 | 0.00 | 0.00 | 45 | 1012.0 |
| 20260503202122 | 25 | 262 | 8.0 | 25.7 | 0.00 | 0.00 | 0.00 | 46 | 1012.0 |
| 20260503201124 | 25 | 260 | 6.4 | 22.5 | 0.00 | 0.00 | 0.00 | 47 | 1012.2 |
| 20260503200123 | 25 | 251 | 4.8 | 17.7 | 0.00 | 0.00 | 0.00 | 48 | 1012.3 |
| 20260503195124 | 25 | 264 | 4.8 | 25.7 | 0.00 | 0.00 | 0.00 | 49 | 1012.4 |
| 20260503194122 | 24 | 262 | 4.8 | 20.9 | 0.00 | 0.00 | 0.00 | 48 | 1012.5 |
| 20260503193124 | 24 | 269 | 3.2 | 17.7 | 0.00 | 0.00 | 0.00 | 46 | 1012.7 |
| 20260503192143 | 23 | 282 | 3.2 | 17.7 | 0.00 | 0.00 | 0.00 | 45 | 1012.8 |
| 20260503191122 | 23 | 297 | 4.8 | 16.1 | 0.00 | 0.00 | 0.00 | 47 | 1012.9 |
| 20260503190124 | 23 | 300 | 4.8 | 17.7 | 0.00 | 0.00 | 0.00 | 46 | 1012.9 |
| 20260503185122 | 23 | 301 | 4.8 | 17.7 | 0.00 | 0.00 | 0.00 | 47 | 1013.0 |
| 20260503184122 | 22 | 313 | 4.8 | 20.9 | 0.00 | 0.00 | 0.00 | 48 | 1013.1 |
| 20260503183122 | 22 | 304 | 4.8 | 12.9 | 0.00 | 0.00 | 0.00 | 51 | 1013.2 |
| 20260503182128 | 22 | 317 | 3.2 | 17.7 | 0.00 | 0.00 | 0.00 | 54 | 1013.3 |
| 20260503182124 | 22 | 316 | 3.2 | 17.7 | 0.00 | 0.00 | 0.00 | 54 | 1013.3 |
| 20260503181144 | 21 | 14 | 4.8 | 20.9 | 0.00 | 0.00 | 0.00 | 55 | 1013.4 |
| 20260503180124 | 20 | 26 | 6.4 | 12.9 | 0.00 | 0.00 | 0.00 | 55 | 1013.4 |
| 20260503175122 | 20 | 19 | 4.8 | 12.9 | 0.00 | 0.00 | 0.00 | 53 | 1013.5 |
| 20260503174124 | 20 | 18 | 3.2 | 12.9 | 0.00 | 0.00 | 0.00 | 56 | 1013.6 |
| 20260503173122 | 20 | 33 | 1.6 | 9.7 | 0.00 | 0.00 | 0.00 | 52 | 1013.7 |
| 20260503172124 | 19 | 21 | 1.6 | 8.0 | 0.00 | 0.00 | 0.00 | 53 | 1013.7 |
| 20260503171122 | 19 | 29 | 3.2 | 9.7 | 0.00 | 0.00 | 0.00 | 56 | 1013.8 |
| 20260503170122 | 19 | 38 | 1.6 | 8.0 | 0.00 | 0.00 | 0.00 | 53 | 1013.9 |